Flag for Malta Weather past 2 weeks in Valletta, Malta

Now
64 °F

Partly sunny.


Feels Like: 64 °F
Forecast: 61 / 71 °F
Wind: 9 mph from Northeast

Location: Luqa

Current Time: May 26, 2015 at 7:43:14 AM

Latest Report: May 26, 2015 at 7:15 AM


Visibility: 4 mi

Pressure: 29.80 "Hg

Humidity: 94%

Dew point: 63 °F

Location of VallettaLocation

Historic Weather in Valletta — Graph

°F

Valletta temperature yesterday

Maximum temperature yesterday: 73 °F (at 11:45 AM)
Minimum temperature yesterday: 59 °F (at 3:15 AM)
Average temperature yesterday: 66 °F

Past Weeks' High & Low Weather Summary

 TemperatureHumidityPressure
High81 °F (May 11, 11:45 AM)100% (May 20, 3:15 AM)30.27 "Hg (May 20, 3:15 AM)
Low57 °F (May 18, 8:15 AM)22% (May 12, 1:15 PM)29.80 "Hg (May 18, 5:15 AM)
Average68 °F68%29.97 "Hg
* Reported May 11 6:15 AM — May 26 6:15 AM, Valletta, Weather by CustomWeather, © 2015

Note: Actual official high and low records may vary slightly from our data, if they occured in-between our weather recording intervals... More about our weather records

Advertising

Valletta weather history for previous 24 hours

 ConditionsComfort  
Time TempWeatherWind HumidityBarometerVisibility
6:15 AM
Tue, May 26
63 °FFog.7 mph94%29.80 "Hg4 mi
5:45 AM63 °FPassing clouds.6 mph94%29.80 "Hg4 mi
5:15 AM63 °FPassing clouds.7 mph94%29.80 "Hg4 mi
4:45 AM63 °FPassing clouds.7 mph94%29.80 "Hg5 mi
4:15 AM63 °FPartly cloudy.8 mph94%29.80 "Hg5 mi
3:45 AM63 °FMild.7 mph94%29.83 "Hg5 mi
3:15 AM64 °FPassing clouds.7 mph88%29.83 "Hg5 mi
2:45 AM64 °FPassing clouds.6 mph88%29.83 "Hg5 mi
2:15 AM64 °FPassing clouds.7 mph88%29.83 "Hg5 mi
1:45 AM64 °FPassing clouds.6 mph88%29.83 "Hg5 mi
1:15 AM63 °FFog.5 mph94%29.86 "Hg5 mi
12:45 AM64 °FMild.6 mph88%29.86 "Hg5 mi
12:15 AM64 °FClear.8 mph88%29.86 "Hg10 mi
11:15 PM
Mon, May 25
64 °FPassing clouds.6 mph88%29.89 "HgN/A
10:45 PM64 °FClear.5 mph88%29.89 "Hg10 mi
10:15 PM64 °FPassing clouds.5 mph88%29.89 "HgN/A
9:45 PM64 °FPassing clouds.5 mph88%29.89 "HgN/A
9:15 PM64 °FClear.5 mph88%29.89 "Hg10 mi
8:45 PM64 °FSunny.5 mph88%29.89 "Hg10 mi
8:15 PM66 °FSunny.5 mph83%29.89 "Hg10 mi
7:45 PM66 °FPassing clouds.6 mph78%29.86 "HgN/A
7:15 PM68 °FPassing clouds.7 mph73%29.86 "HgN/A
6:45 PM70 °FPassing clouds.7 mph69%29.86 "HgN/A
6:15 PM70 °FPassing clouds.8 mph69%29.86 "HgN/A
5:45 PM72 °FScattered clouds.8 mph65%29.89 "HgN/A
5:15 PM72 °FScattered clouds.6 mph57%29.89 "HgN/A
4:45 PM72 °FScattered clouds.7 mph57%29.89 "HgN/A
4:15 PM72 °FPassing clouds.8 mph61%29.89 "HgN/A
3:45 PM73 °FScattered clouds.7 mph61%29.92 "HgN/A
3:15 PM73 °FPassing clouds.9 mph61%29.92 "HgN/A
2:45 PM73 °FPassing clouds.3 mph61%29.95 "HgN/A
2:15 PM73 °FPassing clouds.5 mph61%29.95 "HgN/A
1:45 PM73 °FPassing clouds.7 mph61%29.95 "HgN/A
1:15 PM72 °FPassing clouds.8 mph65%29.95 "HgN/A
12:45 PM72 °FPassing clouds.8 mph69%29.98 "HgN/A
12:15 PM73 °FPassing clouds.3 mph57%29.95 "HgN/A
11:45 AM73 °FPassing clouds.7 mph53%29.95 "HgN/A
11:15 AM72 °FPassing clouds.3 mph57%29.95 "HgN/A
10:45 AM72 °FPassing clouds.5 mph61%29.95 "HgN/A
10:15 AM70 °FPassing clouds.5 mph69%29.95 "HgN/A
9:45 AM68 °FPassing clouds.3 mph73%29.98 "HgN/A
9:15 AM68 °FPassing clouds.3 mph73%29.98 "HgN/A
8:45 AM66 °FScattered clouds.5 mph78%29.98 "HgN/A
8:15 AM63 °FScattered clouds.3 mph88%29.98 "HgN/A
7:45 AM63 °FScattered clouds.5 mph88%29.98 "HgN/A
7:15 AM61 °FPassing clouds.7 mph94%29.95 "HgN/A
Weather by CustomWeather, © 2015

See weather overviewHow to use our weather pages